Date String (YYYY-MM-DD hh:mm:ss) UTC,Instrument flags,absolute air pressure of the measurement (hPa),sample flow rate (lpm),inlet stack bypass flow (lpm),air temperature of the measurement (°C),ambient temperature measured by the external sensor (°C),aerosol sample conditioner tube jacket temperature (°C),OPC LED temperature (°C),internal box temperature (°C),relative humidity of the measurement (%),span deviation,mass concentration of particles derived from Lorenz-Mie calculation of OPC scattering (μg/m³),mass concentration of particles derived from Lorenz-Mie calculation of OPC scattering (μg/m³),mass concentration of particles derived from Lorenz-Mie calculation of OPC scattering (μg/m³)
DateTimeUTC,F1_M11,P_M11,Q1_M11,Q2_M11,T1_M11,T2_M11,T3_M11,T4_M11,T5_M11,U1_M11,ZSPAN_M11,X0_M11,X2_M11,X1_M11
2023-07-13 15:00:00,SystemResetWarning,0832.0,5.00,000.00,029.0,026.3,000.0,037.5,030.5,32.5,0000.0,0009.59,0004.25,0003.77
2023-07-13 15:01:00,SystemResetWarning,0832.0,5.01,000.00,029.0,026.6,000.0,037.5,030.5,33.0,0000.0,0009.57,0004.28,0003.80
2023-07-13 15:02:00,SystemResetWarning,0831.9,5.00,000.00,029.1,027.0,000.0,037.6,030.6,33.4,0000.0,0009.36,0004.30,0003.82
2023-07-13 15:03:00,SystemResetWarning,0832.1,5.00,000.00,029.1,027.3,000.0,037.6,030.7,34.5,0000.0,0009.29,0004.33,0003.84
2023-07-13 15:04:00,SystemResetWarning,0832.1,5.00,000.00,029.1,027.5,000.0,037.6,030.8,33.7,0000.0,0009.85,0004.39,0003.85
2023-07-13 15:05:00,SystemResetWarning,0831.9,5.00,000.00,029.1,027.7,000.0,037.6,030.8,31.1,0000.0,0010.24,0004.43,0003.88
2023-07-13 15:06:00,SystemResetWarning,0832.0,5.00,000.00,029.2,027.9,000.0,037.6,030.9,31.1,0000.0,0010.41,0004.44,0003.89
2023-07-13 15:07:00,SystemResetWarning,0832.1,5.00,000.00,029.2,027.7,000.0,037.6,030.9,30.5,0000.0,0010.40,0004.45,0003.90
2023-07-13 15:08:00,SystemResetWarning,0832.0,4.98,000.00,029.2,026.4,000.0,037.5,030.7,25.6,0000.0,0009.81,0004.47,0003.91
2023-07-13 15:09:00,SystemResetWarning,0832.0,5.01,000.00,029.1,025.4,000.0,037.4,030.5,28.3,0000.0,0009.39,0004.49,0003.91
2023-07-13 15:10:00,SystemResetWarning,0831.7,5.01,000.00,029.1,025.5,000.0,037.4,030.4,28.5,0000.0,0010.13,0004.55,0003.93
2023-07-13 15:11:00,SystemResetWarning,0831.7,5.00,000.00,029.0,025.8,000.0,037.4,030.4,28.1,0000.0,0010.64,0004.57,0003.93
2023-07-13 15:12:00,SystemResetWarning,0831.8,5.00,000.00,029.0,026.2,000.0,037.5,030.4,29.0,0000.0,0011.08,0004.55,0003.93
2023-07-13 15:13:00,SystemResetWarning,0832.3,5.00,000.00,029.0,026.6,000.0,037.5,030.5,30.7,0000.0,0011.20,0004.55,0003.93
2023-07-13 15:14:00,SystemResetWarning,0831.9,5.00,000.00,029.0,026.9,000.0,037.5,030.6,28.8,0000.0,0011.28,0004.58,0003.93
2023-07-13 15:15:00,SystemResetWarning,0831.9,5.00,000.00,029.1,027.2,000.0,037.5,030.7,27.8,0000.0,0011.28,0004.54,0003.93
2023-07-13 15:16:00,SystemResetWarning,0831.9,5.00,000.00,029.1,027.4,000.0,037.5,030.7,28.4,0000.0,0010.70,0004.53,0003.91
2023-07-13 15:17:00,SystemResetWarning,0831.9,4.99,000.00,029.1,027.6,000.0,037.5,030.8,30.4,0000.0,0010.29,0004.52,0003.90
2023-07-13 15:18:00,SystemResetWarning,0831.9,5.00,000.00,029.2,027.8,000.0,037.6,030.8,29.4,0000.0,0010.42,0004.52,0003.88
2023-07-13 15:19:00,SystemResetWarning,0832.0,4.99,000.00,029.2,027.4,000.0,037.5,030.8,29.4,0000.0,0010.95,0004.50,0003.86
2023-07-13 15:20:00,SystemResetWarning,0831.9,5.00,000.00,029.1,025.9,000.0,037.4,030.6,29.6,0000.0,0011.23,0004.50,0003.86
2023-07-13 15:21:00,SystemResetWarning,0831.9,5.01,000.00,029.1,025.2,000.0,037.3,030.4,28.6,0000.0,0010.62,0004.50,0003.85
2023-07-13 15:22:00,SystemResetWarning,0831.9,5.01,000.00,029.0,025.5,000.0,037.3,030.3,29.0,0000.0,0010.73,0004.46,0003.83
2023-07-13 15:23:00,SystemResetWarning,0831.9,5.00,000.00,029.0,025.8,000.0,037.4,030.3,31.9,0000.0,0010.66,0004.48,0003.81
2023-07-13 15:24:00,SystemResetWarning,0831.9,5.00,000.00,028.9,026.2,000.0,037.4,030.4,27.3,0000.0,0010.56,0004.49,0003.80
2023-07-13 15:25:00,SystemResetWarning,0831.9,5.00,000.00,029.0,026.6,000.0,037.4,030.5,27.3,0000.0,0010.33,0004.45,0003.78
2023-07-13 15:26:00,SystemResetWarning,0831.9,4.99,000.00,029.0,026.9,000.0,037.4,030.6,27.9,0000.0,0009.82,0004.43,0003.78
2023-07-13 15:27:00,SystemResetWarning,0831.9,5.00,000.00,029.0,027.2,000.0,037.4,030.6,31.1,0000.0,0009.63,0004.40,0003.77
2023-07-13 15:28:00,SystemResetWarning,0831.9,5.00,000.00,029.0,027.5,000.0,037.5,030.7,31.4,0000.0,0009.64,0004.40,0003.78
2023-07-13 15:29:00,SystemResetWarning,0831.9,4.99,000.00,029.1,027.7,000.0,037.5,030.8,31.5,0000.0,0009.51,0004.41,0003.79
2023-07-13 15:30:00,SystemResetWarning,0831.9,4.99,000.00,029.1,027.5,000.0,037.5,030.8,33.1,0000.0,0009.04,0004.43,0003.80
2023-07-13 15:31:00,SystemResetWarning,0831.9,5.00,000.00,029.1,026.1,000.0,037.3,030.6,32.9,0000.0,0008.99,0004.45,0003.79
2023-07-13 15:32:00,SystemResetWarning,0831.8,5.01,000.00,029.0,025.2,000.0,037.2,030.4,34.2,0000.0,0008.94,0004.44,0003.79
2023-07-13 15:33:00,SystemResetWarning,0831.9,5.01,000.00,029.0,025.3,000.0,037.2,030.3,33.7,0000.0,0008.69,0004.43,0003.78
2023-07-13 15:34:00,SystemResetWarning,0831.8,5.01,000.00,028.9,025.7,000.0,037.3,030.2,31.1,0000.0,0008.43,0004.39,0003.78
2023-07-13 15:35:00,SystemResetWarning,0831.8,5.00,000.00,028.9,026.1,000.0,037.3,030.3,29.6,0000.0,0008.43,0004.39,0003.79
2023-07-13 15:36:00,SystemResetWarning,0831.7,4.99,000.00,028.9,026.5,000.0,037.3,030.4,29.9,0000.0,0008.51,0004.42,0003.82
2023-07-13 15:37:00,SystemResetWarning,0831.8,5.00,000.00,028.9,026.8,000.0,037.4,030.5,30.9,0000.0,0009.03,0004.47,0003.84
2023-07-13 15:38:00,SystemResetWarning,0831.8,5.00,000.00,028.9,027.1,000.0,037.4,030.6,31.1,0000.0,0009.14,0004.51,0003.86
2023-07-13 15:39:00,SystemResetWarning,0831.8,5.00,000.00,029.0,027.4,000.0,037.4,030.6,33.6,0000.0,0009.21,0004.51,0003.88
2023-07-13 15:40:00,SystemResetWarning,0831.8,5.00,000.00,029.0,027.6,000.0,037.4,030.7,34.1,0000.0,0009.21,0004.52,0003.90
2023-07-13 15:41:00,SystemResetWarning,0831.8,4.99,000.00,029.1,027.0,000.0,037.4,030.7,34.2,0000.0,0009.21,0004.53,0003.93
2023-07-13 15:42:00,SystemResetWarning,0831.8,4.99,000.00,029.0,025.6,000.0,037.2,030.4,33.3,0000.0,0008.94,0004.51,0003.94
2023-07-13 15:43:00,SystemResetWarning,0831.8,5.01,000.00,028.9,025.1,000.0,037.2,030.3,32.2,0000.0,0008.76,0004.48,0003.94
2023-07-13 15:44:00,SystemResetWarning,0832.2,5.01,000.00,028.9,025.4,000.0,037.2,030.2,32.2,0000.0,0008.86,0004.50,0003.95
2023-07-13 15:45:00,SystemResetWarning,0832.0,5.01,000.00,028.8,025.8,000.0,037.2,030.2,29.0,0000.0,0009.02,0004.57,0003.96
2023-07-13 15:46:00,SystemResetWarning,0831.8,5.00,000.00,028.8,026.2,000.0,037.3,030.3,28.4,0000.0,0009.24,0004.62,0003.98
2023-07-13 15:47:00,SystemResetWarning,0831.9,5.00,000.00,028.8,026.6,000.0,037.3,030.4,28.9,0000.0,0009.24,0004.64,0003.98
2023-07-13 15:48:00,SystemResetWarning,0832.0,5.00,000.00,028.9,026.9,000.0,037.3,030.5,29.9,0000.0,0008.72,0004.63,0003.99
2023-07-13 15:49:00,SystemResetWarning,0832.3,4.99,000.00,028.9,027.2,000.0,037.3,030.5,30.2,0000.0,0008.63,0004.61,0004.00
2023-07-13 15:50:00,SystemResetWarning,0832.0,4.99,000.00,029.0,027.5,000.0,037.3,030.6,29.9,0000.0,0008.73,0004.63,0004.00
2023-07-13 15:51:00,SystemResetWarning,0831.7,4.99,000.00,029.0,027.6,000.0,037.3,030.7,29.0,0000.0,0009.17,0004.64,0004.00
2023-07-13 15:52:00,SystemResetWarning,0831.7,5.00,000.00,029.0,026.6,000.0,037.3,030.5,30.3,0000.0,0010.06,0004.67,0003.98
2023-07-13 15:53:00,SystemResetWarning,0831.7,5.00,000.00,028.9,025.3,000.0,037.2,030.3,31.5,0000.0,0010.25,0004.66,0003.98
2023-07-13 15:54:00,SystemResetWarning,0831.7,5.00,000.00,028.9,025.2,000.0,037.1,030.3,31.8,0000.0,0010.48,0004.68,0003.98
2023-07-13 15:55:00,SystemResetWarning,0831.6,5.00,000.00,028.8,025.5,000.0,037.1,030.2,32.3,0000.0,0010.37,0004.70,0003.99
2023-07-13 15:56:00,SystemResetWarning,0831.7,5.01,000.00,028.8,025.9,000.0,037.2,030.2,32.6,0000.0,0009.92,0004.66,0004.00
2023-07-13 15:57:00,SystemResetWarning,0831.7,5.00,000.00,028.8,026.3,000.0,037.2,030.3,33.6,0000.0,0009.68,0004.63,0004.00
2023-07-13 15:58:00,SystemResetWarning,0831.7,5.00,000.00,028.8,026.7,000.0,037.2,030.4,34.2,0000.0,0009.60,0004.60,0003.99
2023-07-13 15:59:00,SystemResetWarning,0831.7,5.00,000.00,028.8,027.0,000.0,037.3,030.5,31.5,0000.0,0009.59,0004.56,0003.97
